Location: Adult Basic Education School
(32.7976°N, 96.7872°W)
Time: 03:03:58
(UTC+00:00)

Daily predictions for brighter satellites

Satellite Brightness Start Highest point End
(mag) Time Altitude Azimuth Time Altitude Azimuth Time Altitude Azimuth
Cosmos 1821 Rocket 4.1 01:55:27 10° N 02:01:38 86° W 02:07:42 10° S
SL-16 R/B 2.2 01:59:25 10° S 02:05:00 65° ESE 02:10:37 10° NNE
Cosmos 2322 Rocket 2.4 02:00:07 10° S 02:05:34 49° ESE 02:11:02 10° NNE
Cosmos 2082 4.5 02:01:15 10° NNW 02:06:50 55° WSW 02:12:23 10° S
Centaur D-1AR AC-36 3.4 02:05:17 10° SW 02:07:09 14° S 02:09:17 10° SSE
OBJECT-B 1.1 02:05:07 10° SSE 02:08:11 48° ENE 02:11:18 10° N
Cosmos 1470 4.2 02:06:05 10° NNE 02:09:12 22° ENE 02:12:16 10° SE
ATLAS 3B R/B 3.7 02:04:57 10° SSE 02:09:27 20° ESE 02:13:59 10° ENE
USA 234 4.0 02:04:25 10° SSE 02:10:40 48° SW 02:16:58 10° NW
NOSS 3-2 (C) 4.2 02:05:42 10° SW 02:10:59 54° NW 02:16:55 10° NNE
Cosmos 1420 Rocket 4.0 02:06:10 10° SSW 02:11:20 89° WNW 02:16:33 10° NNE
MOS 1-B Rocket 4.2 02:05:45 10° N 02:11:22 74° WNW 02:17:30 10° SSW
KM-V1 3.4 02:10:08 10° WSW 02:12:16 52° S 02:15:23 10° E
FALCON 9 DEB 3.2 02:09:50 10° SSW 02:12:45 41° SE 02:15:42 10° ENE
Cosmos 1378 Rocket 3.5 02:10:22 10° S 02:14:39 64° E 02:18:58 10° NNE
Okean 1 Rocket 4.1 02:13:41 10° NNE 02:17:31 29° E 02:21:21 10° SE
Cosmos 1190 Rocket 4.1 02:12:17 10° NNW 02:17:36 74° ENE 02:22:53 10° SSE
SJ-6B 2.9 02:13:55 10° SSE 02:17:58 67° ENE 02:22:01 10° N
CZ-4 R/B 4.1 02:15:52 10° SW 02:18:09 15° W 02:20:27 10° WNW
FALCON 9 DEB 3.4 02:16:47 10° SSW 02:19:38 35° SE 02:22:30 10° ENE
Cosmos 2227 4.5 02:16:58 10° N 02:22:27 53° ENE 02:27:47 11° SE
Cosmos 1733 4.1 02:19:07 10° NNW 02:22:52 50° W 02:26:35 10° S
FALCON 9 DEB 2.9 02:19:59 10° SSW 02:23:00 52° SE 02:26:01 10° NE
Cosmos 1238 4.3 02:20:14 10° S 02:23:51 66° E 02:26:56 10° NNE
Resurs 1-3 4.2 02:20:46 10° SE 02:24:52 41° ENE 02:28:59 10° N
USA 186 2.3 02:22:45 10° S 02:25:25 49° W 02:28:17 10° NNW
Helios 1A Rocket 3.4 02:26:55 10° S 02:30:56 61° W 02:34:56 10° NNW
Cosmos 2237 4.2 02:27:40 10° S 02:33:15 61° ESE 02:38:51 10° NNE
Cosmos 1934 Rocket 4.0 02:28:52 10° N 02:35:01 86° W 02:41:14 10° S
Cosmos 1626 4.3 02:35:59 10° E 02:36:08 10° E 02:36:47 10° ENE
Cosmos 1707 2.7 02:33:21 10° S 02:37:10 65° E 02:41:01 10° NNE
Cosmos 1315 Rocket 3.3 02:33:23 10° N 02:37:20 43° E 02:40:17 16° SSE
Meteor 1-21 4.2 02:31:57 10° S 02:37:38 85° E 02:43:17 10° N
Cosmos 1844 Rocket 4.5 02:37:09 10° NNE 02:40:51 17° ENE 02:44:09 11° E
IRS-1A Rocket 4.4 02:35:08 10° SSE 02:40:58 71° ENE 02:46:45 10° N
Ariane Rocket 3.0 02:39:06 11° SSE 02:43:57 71° ENE 02:49:02 10° N
SPOT 3 Rocket 4.3 02:42:00 16° SE 02:45:26 35° ENE 02:50:07 10° N
SL-4 R/B 3.7 02:42:28 10° S 02:49:25 - ENE 02:44:17 17° SSE
Meteor 2-20 4.4 02:42:40 10° S 02:48:46 82° E 02:54:51 10° N
ERS-2 3.9 02:45:47 10° N 02:49:07 34° WNW 02:52:27 10° SW
Cosmos 1954 Rocket 4.0 02:44:16 10° NNW 02:49:37 88° ENE 02:54:05 15° SSE
Cosmos 676 Rocket 4.0 02:45:45 10° NNW 02:51:07 89° ENE 02:55:32 15° SSE
CZ-2C R/B 4.3 02:47:23 10° NNE 02:51:52 40° E 02:55:06 17° SSE
Lacrosse 5 rocket 2.2 02:50:34 10° SW 02:54:13 47° NW 02:57:46 10° NNE
Lacrosse 5 2.0 02:50:24 10° NNW 02:55:27 67° NE 02:58:35 23° SE
Cosmos 2263 Rocket 2.5 02:49:57 10° NNW 02:55:35 65° WSW 03:00:40 13° S
In-Cosmos 22 4.0 02:50:53 10° S 02:56:08 73° E 03:01:24 10° NNE
Cosmos 1758 3.4 02:54:04 10° N 02:57:57 56° E 03:00:01 25° SSE
ATLAS 2A CENTAUR R/B 3.8 02:37:00 10° WSW 02:59:06 41° S 03:03:32 21° ESE
Cosmos 1975 Rocket 3.1 02:58:54 18° SSE 03:01:56 57° E 03:06:14 10° NNE
Landsat 7 4.1 02:59:40 23° SE 03:02:21 51° ENE 03:06:58 10° N
Cosmos 1727 Rocket 4.0 02:57:03 10° S 03:03:22 83° E 03:09:40 10° N
Cosmos 1110 Rocket 3.9 03:01:43 10° S 03:06:50 72° ESE 03:12:01 10° NNE
Cosmos 2333 4.4 03:01:23 10° S 03:06:54 50° ESE 03:12:26 10° NNE
Yuri Rocket 4.3 03:01:53 10° WSW 03:07:36 51° SSE 03:14:28 14° E
Delta 128 4.3 03:04:13 10° WSW 03:08:19 36° S 03:09:42 29° SSE
Resurs 01 Rocket 1.5 03:06:34 25° SSE 03:09:04 76° ENE 03:13:29 10° N
Cosmos 1605 Rocket 4.3 03:05:59 10° NNW 03:12:19 69° W 03:18:22 11° S
KORONAS-FOTON 3.6 03:12:02 28° S 03:13:53 74° E 03:17:40 10° N
Cosmos 2333 Rocket 2.3 03:16:10 18° S 03:20:19 53° ESE 03:25:54 10° NNE
Cosmos 1674 2.5 03:19:14 30° S 03:20:58 87° W 03:24:41 10° N
USA 81 4.0 03:16:37 10° N 03:21:55 87° W 03:25:10 24° S
Cosmos 2219 Rocket 2.5 03:19:18 27° SSE 03:22:00 45° ESE 03:27:22 10° NE
Cosmos 1953 2.7 03:19:02 10° N 03:22:56 44° E 03:23:31 41° ESE
BREEZE-M DEB (TANK) 3.9 03:23:43 10° W 03:25:39 22° NNW 03:27:58 10° NNE
Cosmos 1726 3.8 03:24:08 10° NNW 03:27:18 29° W 03:29:46 14° SW
ASTRO E2 2.5 03:25:43 10° WSW 03:29:40 69° S 03:30:13 59° SE
Cosmos 1802 Rocket 4.5 03:25:26 10° N 03:31:26 44° E 03:33:34 34° SE
Cosmos 1844 4.3 03:30:17 10° N 03:35:32 41° ENE 03:37:07 33° ESE
Cosmos 1459 Rocket 4.0 03:30:01 10° N 03:35:59 61° E 03:38:14 38° SE
Cosmos 1000 Rocket 4.4 03:35:49 21° S 03:40:06 86° W 03:46:16 10° N
Cosmos 2237 Rocket 4.1 03:44:17 14° ENE 03:44:17 14° ENE 03:45:42 10° ENE
ERS-1 Rocket 3.6 03:44:13 37° E 03:44:58 40° ENE 03:49:38 10° N
Cosmos 1340 2.8 03:46:01 58° NE 03:46:01 58° NE 03:49:17 10° NNE
Cosmos 2360 Rocket 3.6 03:40:44 10° SW 03:45:56 37° WNW 03:51:08 10° N
ARIANE 5 R/B 2.8 03:45:36 51° E 03:46:00 53° ENE 03:50:22 10° N
Spot 2 Rocket 3.5 03:46:38 51° SE 03:47:45 67° ENE 03:52:47 10° N
Cosmos 1850 Rocket 4.1 03:43:33 10° NNW 03:48:49 72° WSW 03:50:27 44° S
Meteor 1-24 Rocket 4.2 03:49:57 37° E 03:49:57 37° E 03:54:51 10° NNE
Cosmos 1544 Rocket 3.6 03:46:21 10° N 03:50:45 61° E 03:50:53 61° E
Cosmos 1455 Rocket 3.3 03:50:49 10° NNW 03:55:14 65° W 03:56:07 51° SSW
SPOT 1/Viking Rocket 3.7 03:54:25 42° SSW 03:56:04 67° WSW 04:01:11 10° NNW
ATLAS 3B R/B 3.1 03:53:07 10° SW 03:59:30 58° WNW 04:06:04 10° NNE
Cosmos 1864 Rocket 4.5 03:57:39 10° N 04:03:44 60° E 04:04:49 52° SE
Cosmos 2123 Rocket 3.9 04:03:20 41° S 04:05:46 88° W 04:12:07 10° N
Uosat 12 SS-18 rocket 4.2 04:06:19 51° WSW 04:07:13 69° WNW 04:11:49 10° NNE
Cosmos 1908 4.1 04:06:01 10° NNW 04:09:39 44° W 04:09:39 44° W
Cosmos 1626 3.6 04:10:27 30° W 04:10:56 32° W 04:14:16 10° NNW
Cosmos 2322 4.4 04:06:40 12° SW 04:11:45 51° WNW 04:17:15 10° N
Cosmos 2061 Rocket 4.0 04:05:23 10° N 04:11:49 75° E 04:13:10 57° SSE
Cosmos 1302 Rocket 4.4 04:09:49 32° SW 04:12:09 61° WNW 04:17:21 10° N
Terra 2.2 04:12:29 51° ENE 04:12:29 51° ENE 04:16:52 10° N
Cosmos 1461 3.3 04:08:24 10° NW 04:11:53 56° WNW 04:11:53 56° WNW
COSMOS 2428 2.8 04:10:08 36° SSW 04:12:32 78° WNW 04:18:18 10° NNE
Cosmos 1900 4.3 04:08:32 10° NNW 04:13:22 66° ENE 04:13:22 66° ENE
Aureole 1 Rocket 4.4 04:07:47 10° NNW 04:14:26 75° WSW 04:17:14 43° S
SPOT 5 2.8 04:16:00 79° SE 04:16:18 86° ENE 04:21:18 10° N
Cosmos 1536 Rocket 3.7 04:17:04 70° W 04:17:04 70° W 04:21:30 10° N
ATLAS CENTAUR R/B 2.3 04:13:03 10° NNW 04:16:58 45° NE 04:16:58 45° NE
Cosmos 2233 Rocket 4.3 04:13:20 10° N 04:19:16 48° E 04:19:39 48° E
BREEZE M DEB (TANK) 4.4 04:17:19 10° SW 04:21:30 80° NW 04:38:26 10° NE
IUS-18 SRM-1 3.9 04:14:08 10° W 04:20:37 36° SW 04:20:37 36° SW
Cosmos 2278 Rocket 3.9 04:17:55 10° NNE 04:21:57 19° ENE 04:22:35 19° ENE
SL-4 R/B 2.9 04:20:47 10° WSW 04:24:57 48° NW 04:28:49 10° NE
Cosmos 1844 Rocket 3.0 04:19:31 10° NNW 04:25:04 56° WSW 04:25:49 52° SW
USA 215 3.1 04:24:45 10° NE 04:31:18 74° SE 04:32:55 53° SSW
Lacrosse 5 4.1 04:35:18 10° W 04:37:47 14° WSW 04:37:47 14° WSW
Cosmos 2016 Rocket 4.4 04:37:35 10° NNW 04:43:30 53° W 04:44:37 47° SW
Meteor 2-10 Rocket 4.0 04:47:16 10° N 04:51:13 52° NNE 04:51:13 52° NNE
Cosmos 1980 3.8 04:53:23 69° NNE 04:53:23 69° NNE 04:58:21 10° NNE
Cosmos 968 Rocket 3.8 04:49:14 10° NNW 04:53:28 60° N 04:53:28 60° N
Cosmos 1992 Rocket 4.4 04:57:08 58° WNW 04:57:08 58° WNW 05:02:04 10° N
Cosmos 2219 Rocket 4.4 05:01:54 10° WSW 05:06:06 21° WNW 05:10:20 10° N
ATLAS CENTAUR R/B 3.2 05:08:15 51° NE 05:08:15 51° NE 05:15:00 10° NE
SL-16 R/B 3.6 05:25:29 29° NE 05:25:29 29° NE 05:28:29 10° NE
Cosmos 2237 Rocket 2.8 05:26:03 51° WNW 05:26:03 51° WNW 05:31:16 10° N
Cosmos 2034 Rocket 4.5 05:37:35 10° N 05:42:38 51° NE 05:42:38 51° NE
Terra 4.4 05:51:22 12° WNW 05:51:22 12° WNW 05:52:13 10° WNW
NOSS 3-1 (C) 4.3 05:53:14 38° NE 05:53:14 38° NE 05:56:47 10° NNE
Tsikada Rocket 4.3 06:05:58 60° NNE 06:05:58 60° NNE 06:10:56 10° N
Cosmos 2278 Rocket 3.4 06:00:49 10° NNW 06:04:25 36° WNW 06:04:25 36° WNW
Cosmos 1943 Rocket 3.2 06:29:53 10° N 06:33:59 40° NNE 06:33:59 40° NNE
USA 267 3.9 06:41:13 39° E 06:43:00 49° NE 06:49:14 10° NNW
CZ-2D R/B 4.4 06:45:39 10° ENE 06:47:12 14° ENE 06:47:12 14° ENE
Cosmos 2279 Rocket 4.3 06:53:58 10° N 06:59:19 60° NE 06:59:19 60° NE
Cosmos 1634 Rocket 4.4 06:56:27 10° N 07:01:35 57° NW 07:01:35 57° NW
SL-16 R/B 4.0 07:07:19 21° WNW 07:07:24 21° WNW 07:11:38 10° N
SJ 16-02 3.8 07:06:40 10° NNW 07:07:51 18° NNW 07:07:51 18° NNW
Cosmos 2369 Rocket 2.7 07:21:08 10° NNW 07:25:56 57° NNE 07:25:56 57° NNE
Exosat Rocket 4.5 07:27:41 54° WNW 07:27:41 54° WNW 07:32:55 10° N
Nadezhda 4 Rocket 4.1 07:29:04 69° NE 07:29:04 69° NE 07:34:32 10° N
ATLAS 5 CENTAUR R/B 3.7 07:34:05 21° NE 07:34:05 21° NE 07:35:32 10° NE
Lacrosse 4 Rocket 4.4 07:41:31 10° NE 07:42:35 11° NE 07:43:38 10° ENE
Meteor 2-2 Rocket 4.4 07:45:57 10° N 07:51:26 74° NNW 07:51:26 74° NNW
Cosmos 2098 Rocket 4.1 07:56:36 53° NNW 07:56:36 53° NNW 08:00:23 10° N
Cosmos 2208 Rocket 4.3 07:58:36 67° NE 07:58:36 67° NE 08:03:20 10° NNE
SL-16 R/B 2.9 08:00:14 47° ESE 08:01:40 58° ENE 08:07:43 10° N
Cosmos 1627 Rocket 4.4 08:06:29 72° SE 08:06:57 77° E 08:13:19 10° N
Resurs 1-4 Rocket 2.2 08:03:53 10° N 08:08:42 71° NNW 08:08:42 71° NNW
Cosmos 1092 Rocket 3.8 08:09:41 83° W 08:09:45 83° W 08:15:55 10° N
Cosmos 2151 4.1 08:11:14 41° NNE 08:11:14 41° NNE 08:14:08 10° NNE
CZ-4C R/B 3.6 08:12:05 21° ESE 08:12:05 21° ESE 08:15:32 10° ENE
Meteor 2-19 Rocket 4.3 08:12:44 77° W 08:12:49 77° W 08:18:58 10° N
Cosmos 1943 Rocket 4.4 08:14:50 10° WNW 08:15:29 12° WNW 08:15:29 12° WNW
ADEOS II 2.4 08:15:09 10° NNE 08:20:19 56° E 08:20:33 55° ESE
Meteor 2-3 Rocket 3.9 08:20:40 58° ESE 08:21:13 61° E 08:26:42 10° NNE
NPP 3.6 08:16:41 10° N 08:21:57 76° WNW 08:21:57 76° WNW
Cosmos 1428 Rocket 4.3 08:22:50 73° SW 08:23:26 81° W 08:29:45 10° N
USA 267 4.3 08:28:31 29° W 08:28:31 29° W 08:32:01 10° WNW
CZ-2D R/B 2.5 08:23:46 10° N 08:28:31 50° WNW 08:28:31 50° WNW
GPS 2-04 Rocket1 3.9 08:32:08 40° NE 08:32:08 40° NE 08:34:54 10° ENE
AQUA 3.9 08:26:30 10° N 08:30:49 68° NNW 08:30:49 68° NNW
ERBS 4.5 08:35:36 25° NNE 08:35:36 25° NNE 08:37:05 10° NE
IDEFIX/ARIANE 42P 3.6 08:29:21 10° NNE 08:34:12 38° E 08:35:30 32° SE
Cosmos 2221 4.5 08:30:54 10° NNW 08:32:29 19° NW 08:32:29 19° NW
Cosmos 1809 Rocket 4.4 08:39:11 53° SSE 08:40:42 78° E 08:46:53 10° N
Cosmos 1782 4.3 08:39:18 10° NNE 08:42:54 31° E 08:43:52 28° ESE
CBERS-1 4.1 08:46:39 10° NNE 08:51:47 69° ESE 08:52:55 52° SSE
IRS-1D 3.3 08:47:18 10° NNE 08:52:24 90° ESE 08:53:07 67° SSW
Helios 1B rocket 4.0 08:52:58 10° NNW 08:55:36 24° NW 08:55:36 24° NW
Tianhe-1 2.9 08:58:01 28° ENE 08:58:01 28° ENE 08:59:43 10° ENE
ATLAS 2A CENTAUR R/B 3.8 09:06:09 26° SE 09:06:09 26° SE 09:10:05 10° ESE
Meteor 1-28 Rocket 3.3 09:05:33 67° ESE 09:05:53 73° ENE 09:09:40 10° N
Meteor 2-14 Rocket 4.4 09:07:57 43° SSW 09:09:58 72° W 09:16:06 10° N
Cosmos 1933 3.7 09:07:05 10° NNW 09:10:38 49° WNW 09:10:38 49° WNW
Meteor 2-21 Rocket 4.4 09:09:18 36° S 09:12:00 89° E 09:18:12 10° N
Cosmos 1553 Rocket 3.9 09:06:54 10° N 09:13:10 78° W 09:16:15 31° S
ATLAS 5 CENTAUR R/B 4.5 09:05:07 27° WSW 09:14:22 50° S 10:24:26 10° ESE
MSX 3.9 09:09:49 10° NNE 09:15:35 72° ESE 09:18:33 30° S
DELTA 2 DEB (DPAF) 4.0 09:16:18 49° S 09:17:27 77° WSW 09:21:55 10° NNW
SeaSat 1 2.4 09:13:49 10° NNE 09:18:46 89° ESE 09:20:25 43° SSW
S3M 4.1 09:13:14 10° N 09:19:25 77° E 09:24:41 15° S
Cosmos 2298 Rocket 3.9 09:14:24 10° NNW 09:19:44 74° WSW 09:22:33 28° S
USA 281 3.8 09:14:45 10° SE 09:21:09 59° ENE 09:27:35 10° NNW
Lacrosse 4 Rocket 1.6 09:17:35 10° NW 09:21:02 48° W 09:21:02 48° W
Cosmos 1151 Rocket 2.8 09:21:24 10° N 09:25:39 79° W 09:27:04 41° S
FALCON 9 DEB 3.6 09:23:30 10° NW 09:26:52 59° NE 09:30:11 10° SE
Cosmos 1766 Rocket 4.0 09:27:48 39° WSW 09:28:25 42° W 09:32:40 10° N
Cosmos 1833 Rocket 3.0 09:27:13 25° S 09:30:29 61° ESE 09:36:03 10° NNE
Cosmos 1408 Rocket 3.5 09:29:02 37° S 09:30:46 88° W 09:35:14 10° N
Cosmos 2150 Rocket 4.0 09:25:58 10° NNW 09:31:07 61° WSW 09:34:07 25° S
IKONOS-2 4.4 09:29:49 29° S 09:31:57 85° WSW 09:36:11 10° NNW
Cosmos 1862 3.2 09:30:48 45° SSW 09:31:58 81° W 09:36:01 10° N
NOSS 3-4 (A) 4.3 09:29:34 17° S 09:33:25 38° ESE 09:38:51 10° NE
NOSS 3-4 (C) 4.4 09:29:40 17° S 09:33:33 38° ESE 09:38:58 10° NE
Cosmos 1515 Rocket 4.4 09:30:04 10° N 09:34:22 49° E 09:38:40 10° SSE
Alouette 2 Rocket 3.4 09:31:54 10° NNW 09:35:39 72° W 09:38:45 21° S
Cosmos 1125 Rocket 3.4 09:32:59 10° NNW 09:38:12 66° WSW 09:42:31 15° S
IRS-P3 4.1 09:34:55 10° N 09:40:13 72° WNW 09:43:12 27° SSW
Okean 3 Rocket 4.4 09:39:33 29° W 09:40:15 31° W 09:44:10 10° NNW
BREEZE-M DEB (TANK) 3.0 09:38:51 30° WSW 09:41:12 79° NW 09:44:11 10° NE
CZ-4B R/B 3.5 09:37:27 10° NNE 09:42:43 89° ESE 09:46:08 22° SSW
ATLAS 2AS CENTAUR R/B 4.5 09:37:34 10° SSE 09:44:09 30° ESE 09:50:46 10° NE
ADEOS Rocket 3.9 09:40:16 24° SSW 09:44:12 40° W 09:50:38 10° NNW
Gbstr 26 Del rocket 4.1 09:42:00 24° S 09:44:15 41° SE 09:49:15 10° ENE
ARIANE 5 R/B 2.4 09:40:24 10° N 09:45:24 82° WNW 09:48:35 23° SSW
SL-16 R/B 3.9 09:45:19 18° W 09:45:32 18° W 09:49:32 10° NW
COSMOS 2441 4.4 09:44:20 10° N 09:49:05 61° WNW 09:51:45 25° SSW
X-37B 3.1 09:46:30 10° NNW 09:49:07 23° NNE 09:51:45 10° E
Cosmos 2266 Rocket 4.2 09:47:29 24° SSW 09:51:01 51° W 09:56:54 10° N
RUBIN 8/PSLV 4.4 09:48:58 10° N 09:53:15 80° WNW 09:55:59 22° SSW
Cosmos 2082 Rocket 3.1 09:48:43 10° S 09:53:59 45° ESE 09:59:17 10° NE
Cosmos 883 Rocket 4.4 09:51:21 10° N 09:57:29 82° W 10:03:35 10° S
ASTEX 1 3.9 09:55:57 23° SSW 09:58:30 40° W 10:03:08 10° NNW
ADEOS II 3.9 09:56:36 10° NNW 09:59:28 15° WNW 10:01:29 12° W
CZ-4C R/B 2.9 09:57:15 20° WSW 09:59:49 33° NW 10:04:44 10° NNE
OAO 3 Rocket 3.2 10:00:37 23° WSW 10:03:31 69° SSE 10:08:17 10° ENE
CZ-2D R/B 3.5 10:04:37 10° N 10:08:40 57° WNW 10:11:32 18° SSW
CZ-2C R/B 1.2 10:07:20 25° SW 10:09:02 48° SSE 10:12:15 10° E
Cosmos 1812 3.3 10:05:56 10° NNW 10:09:29 37° W 10:11:50 18° SSW
GPS 2-04 Rocket1 2.8 10:06:43 10° WNW 10:10:40 70° NNE 10:14:26 10° E
IDEFIX/ARIANE 42P 4.0 10:09:36 10° NNW 10:13:28 21° WNW 10:16:18 14° WSW
Cosmos 1805 Rocket 3.6 10:10:15 10° S 10:14:35 79° E 10:18:59 10° N
CZ-2C R/B 2.9 10:10:48 10° NNE 10:14:37 74° ESE 10:18:20 10° S
FALCON 9 DEB 4.0 10:13:30 10° NNW 10:16:28 46° NE 10:19:25 10° ESE
Delta 2 Rocket 3.6 10:14:09 10° W 10:18:06 57° N 10:21:42 10° ENE
COSMOS 2406 3.5 10:14:08 16° SW 10:18:29 51° WNW 10:24:00 10° N
Cosmos 1271 Rocket 4.1 10:15:49 10° NW 10:18:36 20° W 10:19:56 17° WSW
PAYLOAD A 4.1 10:15:54 10° N 10:20:59 71° WNW 10:26:14 10° SSW
SL-08 R/B 3.4 10:18:41 10° S 10:23:12 52° W 10:27:48 10° NNW
IUS-17 SRM-1 4.2 10:09:49 10° WSW 10:23:14 51° S 10:26:35 10° ESE
CENTAUR R/B 4.0 10:15:06 10° NNW 10:23:27 60° ENE 10:32:14 10° SE
FALCON 9 DEB 4.4 10:20:51 10° NNW 10:23:48 40° NE 10:26:44 10° ESE
Spot 4 Rocket 4.2 10:19:17 10° N 10:24:18 57° WNW 10:29:19 10° SSW
FALCON 9 DEB 3.5 10:23:50 10° NW 10:26:53 58° NE 10:29:53 10° SE
Chandra Rocket (1) 2.9 10:20:30 12° WSW 10:27:55 44° S 10:31:12 10° ESE
DELTA 2 R/B (1) 4.2 10:26:14 10° WNW 10:31:43 59° NNE 10:37:11 10° E
Tianhe-1 2.9 10:30:50 10° WNW 10:33:30 25° NNW 10:36:12 10° NE
CZ-2C R/B 2.6 10:30:10 10° N 10:34:55 53° WNW 10:39:30 10° SSW
Cosmos 1656 3.8 10:31:21 10° NNW 10:36:55 55° WSW 10:42:23 10° S
Cosmos 1697 Rocket 2.8 10:44:21 10° NNW 10:50:01 89° WSW 10:55:40 10° SSE
Cosmos 158 Rocket 3.9 10:46:04 10° SSW 10:50:52 63° WNW 10:55:44 10° N
SL-19 R/B 4.5 10:45:26 10° S 10:51:38 70° WSW 10:57:26 10° NNW
Cosmos 1666 Rocket 3.5 10:51:28 10° S 10:55:48 81° W 11:00:07 10° N
